Location: Allens Landing
(37.8284°N, 89.7284°W)
Time: 20:53:06
(UTC+00:00)

Courier 1B - Pass Details

Date: 13 November 2024
Orbit: 962 x 1208 km, 28.3° (Epoch: 03 December)

Event Time Altitude Azimuth Distance (km) Brightness Sun altitude
Rises 01:29:12 0° 260° (W) 3,657 11.6 -31.7°
Reaches altitude 10° 01:32:44 10° 242° (WSW) 2,733 10.5 -32.4°
Maximum altitude 01:36:56 18° 202° (SSW) 2,255 9.5 -33.2°
Enters shadow 01:38:21 17° 187° (S) 2,330 9.5 -33.5°
